"Pseudo-MPEC" for TF26G71

Created 2026 Jul 26 18:35:20 UT using Find_Orb

Click here for an explanation of pseudo-MPECs

 
 Astrometry: 
     TF26G71* C2026 07 22.34284121 38 55.157+11 00 14.73   ~7NF5 19.38GVNEOCPU74
     TF26G71  C2026 07 22.34601521 38 54.796+11 00 09.25   ~7NF5 19.38GVNEOCPU74

Station data:
(U74) JPL SynTrack Robotic Telescope 2, Auberry  (N37.070341 W119.412800)
   US/California.  Observers N. Saini, C. Zhai, R. Trahan, M. Zhan, M. Shao.
   0.36-m f/2.2 Schmidt.

Orbital elements:  TF26G71
   Perihelion 2026 Dec 6.960283 +/- 146 TT = 23:02:48.4 (JD 2461381.460283)
Epoch 2026 Jul 22.0 TT = JDT 2461243.5   Earth MOID: 0.3033   Ve: 0.0578
M 266.798990597 +/- 80              Ma: 0.0113                   AutoNEOCP
n   0.675564063 +/- 0.431           Peri.  313.354576 +/- 60
a   1.286347647 +/- 0.548           Node   139.225903 +/- 33
e   0.55587922 +/- 0.229            Incl.   54.090933 +/- 32
P   1.459/532.878d         H 18.17  G  0.15   U 12.2  SR
q 0.571293707 +/- 0.614    Q 2.001401586 +/- 23.9         (J2000 ecliptic)
From 2 observations 2026 July 22 (4.6 min); mean residual 0".00
Residuals in arcseconds: 
260722 U74  .01+  .00     260722 U74  .01+  .00     

Ephemerides (geocentric):
Date (UTC) HH   RA             Dec           delta  r     elong  mag " sig PA
---- --------  ------------   ------------  ------ ------ -----  --- --------
2026 07 26 19  21 29 52.666   +08 34 59.16  .67165 1.6228 147.5 19.3  34d  97
2026 07 26 20  21 29 47.067   +08 33 27.28  .67113 1.6226 147.6 19.3  34d  97
2026 07 26 21  21 29 41.458   +08 31 55.19  .67061 1.6223 147.7 19.3  34d  97
2026 07 26 22  21 29 35.839   +08 30 22.91  .67010 1.6221 147.7 19.3  34d  97
2026 07 26 23  21 29 30.210   +08 28 50.43  .66959 1.6218 147.8 19.3  34d  97
2026 07 27 00  21 29 24.571   +08 27 17.75  .66907 1.6216 147.9 19.3  34d  97
2026 07 27 01  21 29 18.923   +08 25 44.86  .66856 1.6213 147.9 19.3  34d  97
2026 07 27 02  21 29 13.264   +08 24 11.78  .66805 1.6211 148.0 19.3  34d  97
2026 07 27 03  21 29 07.595   +08 22 38.50  .66754 1.6208 148.0 19.3  34d  97
2026 07 27 04  21 29 01.916   +08 21 05.01  .66702 1.6206 148.1 19.3  34d  97
2026 07 27 05  21 28 56.228   +08 19 31.33  .66651 1.6203 148.2 19.3  34d  97
2026 07 27 06  21 28 50.529   +08 17 57.44  .66600 1.6201 148.2 19.3  34d  97
2026 07 27 07  21 28 44.820   +08 16 23.35  .66549 1.6199 148.3 19.3  34d  97
2026 07 27 08  21 28 39.102   +08 14 49.06  .66498 1.6196 148.4 19.3  34d  97
2026 07 27 09  21 28 33.373   +08 13 14.56  .66447 1.6194 148.4 19.3  34d  97
2026 07 27 10  21 28 27.634   +08 11 39.86  .66397 1.6191 148.5 19.3  34d  97
2026 07 27 11  21 28 21.886   +08 10 04.96  .66346 1.6189 148.5 19.3  34d  97
2026 07 27 12  21 28 16.127   +08 08 29.86  .66295 1.6186 148.6 19.3  34d  97
2026 07 27 13  21 28 10.358   +08 06 54.55  .66244 1.6184 148.7 19.3  34d  97
2026 07 27 14  21 28 04.580   +08 05 19.04  .66194 1.6181 148.7 19.3  34d  97
2026 07 27 15  21 27 58.791   +08 03 43.33  .66143 1.6179 148.8 19.3  34d  97
2026 07 27 16  21 27 52.992   +08 02 07.41  .66092 1.6176 148.9 19.3  34d  97
2026 07 27 17  21 27 47.183   +08 00 31.29  .66042 1.6174 148.9 19.3  34d  97
2026 07 27 18  21 27 41.364   +07 58 54.96  .65991 1.6171 149.0 19.3  34d  97
2026 07 27 19  21 27 35.535   +07 57 18.43  .65941 1.6169 149.0 19.3  34d  97
2026 07 27 20  21 27 29.696   +07 55 41.69  .65891 1.6166 149.1 19.3  34d  97
2026 07 27 21  21 27 23.847   +07 54 04.75  .65840 1.6164 149.2 19.3  34d  97
2026 07 27 22  21 27 17.987   +07 52 27.60  .65790 1.6161 149.2 19.3  34d  97
2026 07 27 23  21 27 12.118   +07 50 50.24  .65740 1.6159 149.3 19.3  34d  97
2026 07 28 00  21 27 06.239   +07 49 12.68  .65690 1.6156 149.4 19.3  34d  97
2026 07 28 01  21 27 00.349   +07 47 34.91  .65640 1.6154 149.4 19.3  34d  97
2026 07 28 02  21 26 54.449   +07 45 56.94  .65590 1.6151 149.5 19.3  34d  97
2026 07 28 03  21 26 48.539   +07 44 18.76  .65539 1.6149 149.5 19.3  34d  97
2026 07 28 04  21 26 42.620   +07 42 40.37  .65490 1.6147 149.6 19.2  34d  97
2026 07 28 05  21 26 36.689   +07 41 01.77  .65440 1.6144 149.7 19.2  34d  97
2026 07 28 06  21 26 30.749   +07 39 22.97  .65390 1.6142 149.7 19.2  34d  97
2026 07 28 07  21 26 24.799   +07 37 43.96  .65340 1.6139 149.8 19.2  34d  97
2026 07 28 08  21 26 18.838   +07 36 04.74  .65290 1.6137 149.9 19.2  34d  97
2026 07 28 09  21 26 12.868   +07 34 25.31  .65241 1.6134 149.9 19.2  34d  97
2026 07 28 10  21 26 06.887   +07 32 45.67  .65191 1.6132 150.0 19.2  34d  97
2026 07 28 11  21 26 00.896   +07 31 05.82  .65141 1.6129 150.0 19.2  34d  97
2026 07 28 12  21 25 54.895   +07 29 25.77  .65092 1.6127 150.1 19.2  34d  98
2026 07 28 13  21 25 48.884   +07 27 45.50  .65042 1.6124 150.2 19.2  35d  98
2026 07 28 14  21 25 42.862   +07 26 05.03  .64993 1.6122 150.2 19.2  35d  98
2026 07 28 15  21 25 36.830   +07 24 24.34  .64943 1.6119 150.3 19.2  35d  99
2026 07 28 16  21 25 30.788   +07 22 43.45  .64894 1.6117 150.4 19.2  35d  99
2026 07 28 17  21 25 24.736   +07 21 02.34  .64845 1.6114 150.4 19.2  35d  99
2026 07 28 18  21 25 18.674   +07 19 21.03  .64795 1.6112 150.5 19.2  36d 100